Weather History for KDLH - October, 2013

Change the Weather History Date:

Friday, October 11, 2013

  Actual Average Record
Temperature  
Mean Temperature 61 °F 45 °F  
Max Temperature 69 °F 54 °F 79 °F (1995)
Min Temperature 52 °F 36 °F 21 °F (1936)
Degree Days  
Heating Degree Days 4 20  
Month to date heating degree days 98 197  
Since 1 July heating degree days 340 644  
Cooling Degree Days 0 0  
Month to date cooling degree days 0 0  
Year to date cooling degree days 375 204  
Growing Degree Days 10 (Base 50)    
Moisture  
Dew Point 50 °F    
Average Humidity 65    
Maximum Humidity 77    
Minimum Humidity 53    
Precipitation  
Precipitation 0.03 in 0.09 in 1.30 in (1881)
Month to date precipitation 1.79 1.17  
Year to date precipitation 24.64 25.98  
Snow  
Snow 0.00 in 0.00 in 1.00 in (1917)
Month to date snowfall 0.0 0.3  
Since 1 July snowfall 0.0 0.4  
Since 1 September snowfall 0.0 0.4  
Snow Depth 0.00 in    
Sea Level Pressure  
Sea Level Pressure 29.83 in    
Wind  
Wind Speed 14 mph (ESE)    
Max Wind Speed 24 mph    
Max Gust Speed 32 mph    
Visibility 10 miles    
Events Rain , Thunderstorm    
T = Trace of Precipitation, MM = Missing Value Source: NWS Daily Summary

Daily Weather History Graph

Daily Weather History Graph

Search for Another Location

Airport or City:

Trip Planner

Search our weather history database for the weather conditions in past years. The results will help you decide how hot, cold, wet, or windy it might be!

Date:

Astronomy

Oct. 11, 2013 Rise Set
Actual Time 7:21 AM CDT 6:28 PM CDT
Civil Twilight 6:50 AM CDT 6:59 PM CDT
Nautical Twilight 6:15 AM CDT 7:34 PM CDT
Astronomical Twilight 5:40 AM CDT 8:09 PM CDT
Moon 2:15 PM CDT (10/11) No Moon Set
Length of Visible Light 12h 08m
Length of Day
11h 07m
Waxing Crescent, 47% of the Moon is Illuminated
Oct 11
Waxing Crescent
Oct 11
First Quarter
Oct 18
Full
Oct 26
Last Quarter
Nov 3
New

Hourly Weather History & Observations

Time (CDT) Temp. Dew Point Humidity Pressure Visibility Wind Dir Wind Speed Gust Speed Precip Events Conditions
12:55 AM 55.9 °F 45.0 °F 67% 29.95 in 10.0 mi ESE 10.4 mph - N/A   Clear
1:55 AM 54.0 °F 45.0 °F 72% 29.95 in 10.0 mi SE 6.9 mph - N/A   Clear
2:55 AM 57.0 °F 46.0 °F 67% 29.96 in 10.0 mi ESE 10.4 mph - N/A   Clear
3:55 AM 59.0 °F 46.9 °F 64% 29.96 in 10.0 mi SSE 11.5 mph - N/A   Clear
4:55 AM 55.9 °F 46.9 °F 72% 29.96 in 10.0 mi SE 10.4 mph - N/A   Clear
5:55 AM 54.0 °F 46.0 °F 75% 29.96 in 10.0 mi ESE 9.2 mph - N/A   Clear
6:55 AM 53.1 °F 46.0 °F 77% 29.95 in 10.0 mi ESE 9.2 mph - N/A   Partly Cloudy
7:55 AM 54.0 °F 46.9 °F 77% 29.95 in 10.0 mi ESE 10.4 mph - N/A   Partly Cloudy
8:55 AM 55.0 °F 46.9 °F 74% 29.95 in 10.0 mi ESE 12.7 mph - N/A   Scattered Clouds
9:55 AM 59.0 °F 48.9 °F 69% 29.94 in 10.0 mi SE 15.0 mph - N/A   Scattered Clouds
10:55 AM 60.1 °F 50.0 °F 69% 29.91 in 10.0 mi ESE 12.7 mph - N/A   Scattered Clouds
11:55 AM 64.0 °F 51.1 °F 63% 29.88 in 10.0 mi ESE 15.0 mph 20.7 mph N/A   Partly Cloudy
12:55 PM 68.0 °F 53.1 °F 59% 29.83 in 10.0 mi ESE 15.0 mph 26.5 mph N/A   Partly Cloudy
1:55 PM 68.0 °F 52.0 °F 56% 29.78 in 10.0 mi ESE 17.3 mph 25.3 mph N/A   Partly Cloudy
2:55 PM 69.1 °F 52.0 °F 54% 29.75 in 10.0 mi East 19.6 mph 26.5 mph N/A   Partly Cloudy
3:55 PM 66.0 °F 51.1 °F 59% 29.74 in 10.0 mi ESE 20.7 mph - N/A   Partly Cloudy
4:55 PM 64.0 °F 50.0 °F 60% 29.74 in 10.0 mi ESE 13.8 mph - N/A   Scattered Clouds
5:55 PM 64.0 °F 50.0 °F 60% 29.72 in 10.0 mi East 16.1 mph - N/A   Mostly Cloudy
6:30 PM 62.6 °F 51.8 °F 68% 29.70 in 9.0 mi ESE 18.4 mph - 0.01 in Rain , Thunderstorm Light Thunderstorms and Rain
6:55 PM 62.1 °F 53.1 °F 72% 29.73 in 10.0 mi ESE 16.1 mph - 0.03 in Rain , Thunderstorm Light Thunderstorms and Rain
7:13 PM 62.6 °F 53.6 °F 72% 29.71 in 10.0 mi ESE 13.8 mph - 0.00 in   Overcast
7:55 PM 63.0 °F 53.1 °F 70% 29.71 in 10.0 mi ESE 13.8 mph - 0.00 in   Overcast
8:55 PM 64.0 °F 53.1 °F 67% 29.69 in 10.0 mi SE 13.8 mph - N/A   Overcast
9:55 PM 66.9 °F 53.1 °F 61% 29.67 in 10.0 mi SE 16.1 mph - N/A   Overcast
10:55 PM 66.9 °F 52.0 °F 59% 29.65 in 10.0 mi SSE 19.6 mph 28.8 mph N/A   Mostly Cloudy
11:55 PM 66.9 °F 52.0 °F 59% 29.64 in 10.0 mi SSE 20.7 mph 28.8 mph N/A   Scattered Clouds